Peoria, IL

7:18 PM CDT on March 24, 2017 (GMT -0500)
Greater Peoria Regional

Weather History for KPIA - November, 2011

Change the Weather History Date:

Monday, November 21, 2011

  Actual Average Record
Temperature  
Mean Temperature 43 °F 39 °F  
Max Temperature 50 °F 47 °F 74 °F (1913)
Min Temperature 36 °F 31 °F 4 °F (1937)
Degree Days  
Heating Degree Days 22 26  
Month to date heating degree days 376 443  
Since 1 July heating degree days 822 889  
Cooling Degree Days 0 0  
Month to date cooling degree days 0 0  
Year to date cooling degree days 1265 1039  
Moisture  
Dew Point 36 °F    
Average Humidity 73    
Maximum Humidity 85    
Minimum Humidity 61    
Precipitation  
Precipitation 0.00 in 0.10 in 1.02 in (2007)
Month to date precipitation 3.02 2.20  
Year to date precipitation 35.31 33.14  
Snow  
Snow 0.00 in 0.00 in 4.60 in (2015)
Month to date snowfall T 0.4  
Since 1 July snowfall T 0.4  
Since 1 September snowfall T 0.4  
Snow Depth 0.00 in    
Sea Level Pressure  
Sea Level Pressure 30.22 in    
Wind  
Wind Speed 10 mph (ENE)    
Max Wind Speed 16 mph    
Max Gust Speed 20 mph    
Visibility 10 miles    
Events      
T = Trace of Precipitation, MM = Missing Value Source: NWS Daily Summary

Daily Weather History Graph

Daily Weather History Graph

Search for Another Location

Airport or City:

Trip Planner

Search our weather history database for the weather conditions in past years. The results will help you decide how hot, cold, wet, or windy it might be!

Date:

Astronomy

Nov. 21, 2011 Rise Set
Actual Time 6:52 AM CST 4:36 PM CST
Civil Twilight 6:22 AM CST 5:06 PM CST
Nautical Twilight 5:48 AM CST 5:39 PM CST
Astronomical Twilight 5:16 AM CST 6:12 PM CST
Moon 2:29 AM CST (11/21) 2:00 PM CST (11/21)
Length of Visible Light 10h 44m
Length of Day
9h 44m
Waning Crescent, 17% of the Moon is Illuminated
Nov 21
Waning Crescent
Nov 25
New
Dec 2
First Quarter
Dec 10
Full
Dec 17
Last Quarter

Hourly Weather History & Observations

Time (CST) Temp. Windchill Dew Point Humidity Pressure Visibility Wind Dir Wind Speed Gust Speed Precip Events Conditions
12:54 AM 39.9 °F 33.9 °F 34.0 °F 79% 30.26 in 10.0 mi ENE 9.2 mph - N/A   Overcast
1:54 AM 39.9 °F 35.1 °F 34.0 °F 79% 30.27 in 10.0 mi NE 6.9 mph - N/A   Overcast
2:54 AM 39.9 °F 33.4 °F 34.0 °F 79% 30.26 in 10.0 mi NE 10.4 mph - N/A   Overcast
3:54 AM 37.9 °F 31.5 °F 34.0 °F 86% 30.25 in 10.0 mi NE 9.2 mph - N/A   Partly Cloudy
4:54 AM 39.0 °F 34.0 °F 35.1 °F 86% 30.26 in 9.0 mi NE 6.9 mph - N/A   Overcast
5:54 AM 39.0 °F 32.3 °F 35.1 °F 86% 30.27 in 10.0 mi NE 10.4 mph - N/A   Overcast
6:02 AM 37.4 °F 29.3 °F 33.8 °F 87% 30.25 in 10.0 mi NE 12.7 mph - N/A   Overcast
6:54 AM 37.0 °F 29.8 °F 33.1 °F 86% 30.27 in 8.0 mi ENE 10.4 mph - N/A   Clear
7:54 AM 37.9 °F 31.5 °F 34.0 °F 86% 30.29 in 10.0 mi ENE 9.2 mph - N/A   Clear
8:54 AM 41.0 °F 35.2 °F 34.0 °F 76% 30.29 in 10.0 mi ENE 9.2 mph - N/A   Clear
9:54 AM 42.1 °F 36.1 °F 35.1 °F 76% 30.28 in 10.0 mi East 10.4 mph - N/A   Clear
10:52 AM 44.6 °F 40.2 °F 35.6 °F 71% 30.25 in 10.0 mi East 8.1 mph - N/A   Mostly Cloudy
10:54 AM 45.0 °F 40.1 °F 36.0 °F 71% 30.26 in 10.0 mi ENE 9.2 mph - N/A   Mostly Cloudy
11:54 AM 46.0 °F 41.4 °F 37.0 °F 71% 30.23 in 10.0 mi East 9.2 mph - N/A   Overcast
12:54 PM 48.0 °F - 37.9 °F 68% 30.20 in 10.0 mi East 5.8 mph - N/A   Overcast
1:54 PM 48.9 °F - 37.9 °F 66% 30.18 in 10.0 mi ENE 10.4 mph - N/A   Overcast
2:54 PM 50.0 °F - 37.9 °F 63% 30.17 in 10.0 mi East 8.1 mph - N/A   Overcast
3:54 PM 50.0 °F - 37.9 °F 63% 30.17 in 10.0 mi East 10.4 mph - N/A   Overcast
4:54 PM 48.9 °F - 37.9 °F 66% 30.17 in 10.0 mi East 8.1 mph - N/A   Overcast
5:54 PM 48.2 °F - 37.4 °F 66% 30.16 in 10.0 mi East 11.5 mph - N/A   Overcast
6:54 PM 46.9 °F - 37.9 °F 71% 30.17 in 10.0 mi ENE 11.5 mph - N/A   Overcast
7:54 PM 45.0 °F 37.9 °F 37.0 °F 74% 30.15 in 10.0 mi ENE 16.1 mph - N/A   Overcast
8:54 PM 44.1 °F 37.1 °F 37.0 °F 76% 30.15 in 10.0 mi ENE 15.0 mph - N/A   Overcast
9:36 PM 42.8 °F 37.5 °F 37.4 °F 81% 30.13 in 8.0 mi ENE 9.2 mph - N/A   Overcast
9:54 PM 43.0 °F 37.2 °F 37.0 °F 80% 30.17 in 8.0 mi East 10.4 mph - N/A   Overcast
10:54 PM 43.0 °F 37.2 °F 37.0 °F 80% 30.17 in 7.0 mi ENE 10.4 mph - N/A   Overcast
11:54 PM 42.8 °F 36.2 °F 37.4 °F 81% 30.13 in 6.0 mi ENE 12.7 mph - N/A   Haze